• In Uzbekistan
  • List of Countries
  • For 7 days
  • Water Temperature
  • Satellite Maps
  • Weather Map
  • Weather Widgets
  • user-avatar
    Login

    Hourly Weather Mayrhofen

    Today, 11 December, Sunday

    Time Temperature Precipitation Wind Pressure Humidity
    00:00 -4°C° 0 mm 1 mps 615 mmHg 71%
    01:00 -3°C° 0 mm 1 mps 616 mmHg 70%
    02:00 -3°C° 0 mm 1 mps 615 mmHg 70%
    03:00 -3°C° 0 mm 1 mps 615 mmHg 69%
    04:00 -3°C° 0 mm 1 mps 615 mmHg 68%
    05:00 -3°C° 0 mm 1 mps 615 mmHg 68%
    06:00 -3°C° 0 mm 1 mps 615 mmHg 68%
    07:00 -3°C° 0 mm 1 mps 615 mmHg 68%
    08:00 -2°C° 0 mm 1 mps 616 mmHg 68%
    09:00 0°C° 0 mm 1 mps 617 mmHg 67%
    10:00 -1°C° 0 mm 2 mps 618 mmHg 67%
    11:00 +1°C° 0 mm 2 mps 618 mmHg 68%
    12:00 +2°C° 0 mm 2 mps 618 mmHg 70%
    13:00 +2°C° 0 mm 2 mps 618 mmHg 71%
    14:00 +1°C° 0 mm 2 mps 618 mmHg 76%
    15:00 -1°C° 0 mm 2 mps 617 mmHg 81%
    16:00 -3°C° 0 mm 2 mps 617 mmHg 86%
    17:00 -3°C° 0.1 mm 2 mps 617 mmHg 88%
    18:00 -4°C° 0.1 mm 2 mps 617 mmHg 90%
    19:00 -4°C° 0.1 mm 2 mps 617 mmHg 91%
    20:00 -2°C° 0 mm 1 mps 617 mmHg 92%
    21:00 -2°C° 0 mm 1 mps 617 mmHg 93%
    22:00 -2°C° 0 mm 1 mps 617 mmHg 94%
    23:00 -2°C° 0 mm 1 mps 617 mmHg 94%

    Tomorrow, 12 December, Monday

    Time Temperature Precipitation Wind Pressure Humidity
    00:00 -2°C° 0 mm 1 mps 617 mmHg 94%
    01:00 -2°C° 0 mm 1 mps 617 mmHg 94%
    02:00 -4°C° 0.2 mm 2 mps 617 mmHg 94%
    03:00 -4°C° 0.2 mm 2 mps 617 mmHg 94%
    04:00 -4°C° 0.2 mm 2 mps 617 mmHg 94%
    05:00 -4°C° 0.3 mm 2 mps 617 mmHg 94%
    06:00 -4°C° 0.3 mm 2 mps 617 mmHg 94%
    07:00 -5°C° 0.3 mm 2 mps 617 mmHg 94%
    08:00 -4°C° 0.2 mm 2 mps 617 mmHg 92%
    09:00 -4°C° 0.2 mm 2 mps 618 mmHg 90%
    10:00 -4°C° 0.2 mm 2 mps 618 mmHg 89%
    11:00 -3°C° 0 mm 2 mps 618 mmHg 87%
    12:00 -3°C° 0 mm 2 mps 618 mmHg 85%
    13:00 -2°C° 0 mm 2 mps 619 mmHg 83%
    14:00 -1°C° 0 mm 1 mps 618 mmHg 86%
    15:00 -2°C° 0 mm 1 mps 618 mmHg 89%
    16:00 -3°C° 0 mm 1 mps 618 mmHg 91%
    17:00 -6°C° 0 mm 1 mps 617 mmHg 91%
    18:00 -7°C° 0 mm 1 mps 617 mmHg 91%
    19:00 -9°C° 0 mm 1 mps 616 mmHg 92%
    20:00 -9°C° 0 mm 1 mps 616 mmHg 89%
    21:00 -10°C° 0 mm 1 mps 616 mmHg 86%
    22:00 -10°C° 0 mm 1 mps 616 mmHg 83%
    23:00 -10°C° 0 mm 1 mps 616 mmHg 81%

    Day after tomorrow, 13 December, Tuesday

    Time Temperature Precipitation Wind Pressure Humidity
    00:00 -10°C° 0 mm 1 mps 616 mmHg 78%
    01:00 -10°C° 0 mm 1 mps 616 mmHg 76%
    02:00 -10°C° 0 mm 1 mps 616 mmHg 75%
    03:00 -10°C° 0 mm 1 mps 616 mmHg 74%
    04:00 -9°C° 0 mm 1 mps 616 mmHg 74%
    05:00 -10°C° 0 mm 1 mps 616 mmHg 74%
    06:00 -10°C° 0 mm 1 mps 616 mmHg 74%
    07:00 -10°C° 0 mm 1 mps 616 mmHg 74%
    08:00 -7°C° 0 mm 1 mps 617 mmHg 72%
    09:00 -4°C° 0 mm 1 mps 618 mmHg 70%
    10:00 -2°C° 0 mm 1 mps 620 mmHg 68%
    11:00 -1°C° 0 mm 1 mps 620 mmHg 69%
    12:00 0°C° 0 mm 1 mps 620 mmHg 70%
    13:00 0°C° 0 mm 0 mps 620 mmHg 71%
    14:00 -1°C° 0 mm 0 mps 619 mmHg 74%
    15:00 -3°C° 0 mm 0 mps 618 mmHg 76%
    16:00 -4°C° 0 mm 1 mps 618 mmHg 79%
    17:00 -6°C° 0 mm 1 mps 617 mmHg 76%
    18:00 -6°C° 0 mm 1 mps 617 mmHg 73%
    19:00 -7°C° 0 mm 1 mps 617 mmHg 70%
    20:00 -6°C° 0 mm 1 mps 617 mmHg 68%
    21:00 -6°C° 0 mm 1 mps 617 mmHg 66%
    22:00 -6°C° 0 mm 1 mps 617 mmHg 64%
    23:00 -6°C° 0 mm 1 mps 617 mmHg 64%

    14 December, Wednesday

    Time Temperature Precipitation Wind Pressure Humidity
    00:00 -7°C° 0 mm 1 mps 617 mmHg 64%
    01:00 -7°C° 0 mm 1 mps 617 mmHg 65%
    02:00 -7°C° 0 mm 1 mps 616 mmHg 64%
    03:00 -7°C° 0 mm 1 mps 616 mmHg 64%
    04:00 -7°C° 0 mm 1 mps 616 mmHg 64%
    05:00 -7°C° 0 mm 1 mps 616 mmHg 65%
    06:00 -7°C° 0 mm 1 mps 616 mmHg 67%
    07:00 -7°C° 0 mm 1 mps 616 mmHg 68%
    08:00 -4°C° 0 mm 1 mps 617 mmHg 69%
    09:00 -2°C° 0 mm 1 mps 618 mmHg 70%
    10:00 0°C° 0 mm 1 mps 619 mmHg 71%
    11:00 +1°C° 0 mm 1 mps 619 mmHg 72%
    12:00 +2°C° 0 mm 1 mps 619 mmHg 74%
    13:00 +3°C° 0 mm 1 mps 619 mmHg 76%
    14:00 +2°C° 0 mm 1 mps 618 mmHg 79%
    15:00 +1°C° 0 mm 1 mps 618 mmHg 82%
    16:00 -1°C° 0 mm 1 mps 617 mmHg 85%
    17:00 -1°C° 0.2 mm 1 mps 617 mmHg 86%
    18:00 -1°C° 0.2 mm 1 mps 617 mmHg 87%
    19:00 -3°C° 0.2 mm 2 mps 618 mmHg 89%
    20:00 -3°C° 0.1 mm 2 mps 618 mmHg 89%
    21:00 -4°C° 0.1 mm 2 mps 617 mmHg 90%
    22:00 -4°C° 0.1 mm 2 mps 617 mmHg 91%
    23:00 -2°C° 0.1 mm 1 mps 617 mmHg 92%

    15 December, Thursday

    Time Temperature Precipitation Wind Pressure Humidity
    00:00 -2°C° 0.1 mm 1 mps 617 mmHg 92%
    01:00 -2°C° 0.1 mm 1 mps 617 mmHg 93%
    02:00 -2°C° 0.1 mm 1 mps 617 mmHg 93%
    03:00 -2°C° 0.1 mm 1 mps 617 mmHg 94%
    04:00 -2°C° 0.1 mm 1 mps 617 mmHg 94%
    05:00 -2°C° 0.1 mm 1 mps 617 mmHg 94%
    06:00 -2°C° 0.1 mm 1 mps 617 mmHg 95%
    07:00 -2°C° 0.1 mm 1 mps 617 mmHg 95%
    08:00 -1°C° 0 mm 1 mps 618 mmHg 94%
    09:00 -1°C° 0 mm 1 mps 618 mmHg 93%
    10:00 0°C° 0 mm 1 mps 618 mmHg 92%
    11:00 0°C° 0 mm 1 mps 618 mmHg 90%
    12:00 +1°C° 0 mm 1 mps 618 mmHg 88%
    13:00 +1°C° 0 mm 1 mps 618 mmHg 87%
    14:00 0°C° 0 mm 1 mps 617 mmHg 90%
    15:00 -2°C° 0 mm 1 mps 617 mmHg 92%
    16:00 -3°C° 0 mm 1 mps 616 mmHg 95%
    17:00 -6°C° 0 mm 1 mps 615 mmHg 95%
    18:00 -7°C° 0 mm 1 mps 615 mmHg 95%
    19:00 -8°C° 0 mm 0 mps 614 mmHg 95%
    20:00 -9°C° 0 mm 0 mps 614 mmHg 94%
    21:00 -9°C° 0 mm 1 mps 614 mmHg 93%
    22:00 -10°C° 0 mm 1 mps 614 mmHg 92%
    23:00 -9°C° 0 mm 1 mps 614 mmHg 91%

    16 December, Friday

    Time Temperature Precipitation Wind Pressure Humidity
    00:00 -9°C° 0 mm 1 mps 615 mmHg 89%
    01:00 -9°C° 0 mm 1 mps 615 mmHg 88%
    02:00 -9°C° 0 mm 1 mps 615 mmHg 88%
    03:00 -9°C° 0 mm 1 mps 615 mmHg 89%
    04:00 -9°C° 0 mm 1 mps 615 mmHg 89%
    05:00 -9°C° 0 mm 1 mps 615 mmHg 89%
    06:00 -9°C° 0 mm 1 mps 615 mmHg 88%
    07:00 -9°C° 0 mm 1 mps 615 mmHg 88%
    08:00 -7°C° 0 mm 1 mps 616 mmHg 86%
    09:00 -4°C° 0 mm 1 mps 617 mmHg 84%
    10:00 -3°C° 0 mm 1 mps 618 mmHg 81%
    11:00 -2°C° 0 mm 1 mps 618 mmHg 81%
    12:00 -1°C° 0 mm 1 mps 619 mmHg 81%
    13:00 0°C° 0 mm 1 mps 619 mmHg 80%
    14:00 -2°C° 0 mm 1 mps 618 mmHg 84%
    15:00 -4°C° 0 mm 1 mps 618 mmHg 88%
    16:00 -7°C° 0 mm 1 mps 617 mmHg 92%
    17:00 -7°C° 0 mm 1 mps 617 mmHg 93%
    18:00 -8°C° 0 mm 1 mps 617 mmHg 93%
    19:00 -9°C° 0 mm 1 mps 617 mmHg 94%
    20:00 -9°C° 0 mm 1 mps 618 mmHg 94%
    21:00 -9°C° 0 mm 1 mps 618 mmHg 93%
    22:00 -9°C° 0 mm 1 mps 618 mmHg 93%
    23:00 -9°C° 0 mm 1 mps 619 mmHg 92%
    Show more